Location: Bats
(43.6587°N, 0.4584°W)
Time: 09:41:41
(UTC+00:00)

SL-16 R/B - Pass Details

Date: 12 January 2026
Orbit: 841 x 846 km, 71.0° (Epoch: 18 February)

Event Time Altitude Azimuth Distance (km) Brightness Sun altitude
Rises 17:44:56 0° 224° (SW) 3,390 6.6 -10.3°
Reaches altitude 10° 17:47:30 10° 231° (SW) 2,458 5.9 -10.8°
Maximum altitude 17:52:51 43° 302° (WNW) 1,178 3.3 -11.7°
Drops below altitude 10° 17:58:13 10° 13° (NNE) 2,469 4.3 -12.6°
Enters shadow 18:00:25 - 20° (NNE) 3,262 4.9 -13.0°
